TimeMDT,TemperatureF,Dew PointF,Humidity,Sea Level PressureIn,VisibilityMPH,Wind Direction,Wind SpeedMPH,Gust SpeedMPH,PrecipitationIn,Events,Conditions,WindDirDegrees,DateUTC
12:15 AM,42.8,37.4,81,29.86,10.0,ENE,6.9,-,0.01,,Overcast,70,2013-10-03 06:15:00
12:35 AM,42.8,37.4,81,29.85,10.0,ENE,6.9,-,0.01,,Overcast,70,2013-10-03 06:35:00
12:55 AM,41.0,37.4,87,29.85,10.0,NE,8.1,-,0.02,,Overcast,50,2013-10-03 06:55:00
1:15 AM,41.0,37.4,87,29.85,10.0,NNE,5.8,-,0.01,,Overcast,30,2013-10-03 07:15:00
1:35 AM,41.0,37.4,87,29.84,10.0,NE,6.9,-,0.01,,Overcast,50,2013-10-03 07:35:00
1:55 AM,41.0,35.6,81,29.84,10.0,NE,4.6,-,0.03,,Overcast,50,2013-10-03 07:55:00
2:15 AM,39.2,37.4,93,29.84,10.0,East,3.5,-,0.02,,Overcast,100,2013-10-03 08:15:00
2:35 AM,41.0,35.6,81,29.83,10.0,Calm,Calm,-,0.02,,Overcast,0,2013-10-03 08:35:00
2:55 AM,41.0,35.6,81,29.83,10.0,Calm,Calm,-,0.02,,Overcast,0,2013-10-03 08:55:00
3:15 AM,39.2,37.4,93,29.82,10.0,East,4.6,-,N/A,,Overcast,100,2013-10-03 09:15:00
3:35 AM,39.2,35.6,87,29.82,10.0,Calm,Calm,-,0.02,,Overcast,0,2013-10-03 09:35:00
3:55 AM,39.2,35.6,87,29.82,10.0,Calm,Calm,-,0.03,,Overcast,0,2013-10-03 09:55:00
4:15 AM,39.2,35.6,87,29.82,8.0,SE,4.6,-,0.01,,Overcast,130,2013-10-03 10:15:00
4:35 AM,39.2,33.8,81,29.82,10.0,SSE,5.8,-,0.04,,Overcast,160,2013-10-03 10:35:00
4:55 AM,37.4,35.6,93,29.82,10.0,SSE,9.2,-,0.09,,Overcast,160,2013-10-03 10:55:00
5:15 AM,37.4,33.8,87,29.83,10.0,SSW,8.1,-,0.03,,Overcast,210,2013-10-03 11:15:00
5:35 AM,35.6,33.8,93,29.83,10.0,WSW,6.9,-,0.05,,Overcast,240,2013-10-03 11:35:00
5:55 AM,35.6,33.8,93,29.82,10.0,SSW,5.8,-,0.07,,Overcast,200,2013-10-03 11:55:00
6:15 AM,35.6,33.8,93,29.82,10.0,SSW,5.8,-,N/A,,Overcast,210,2013-10-03 12:15:00
6:35 AM,35.6,33.8,93,29.82,10.0,SW,8.1,-,N/A,,Mostly Cloudy,220,2013-10-03 12:35:00
6:55 AM,37.4,33.8,87,29.83,10.0,SW,5.8,-,N/A,,Overcast,230,2013-10-03 12:55:00
7:15 AM,37.4,33.8,87,29.83,10.0,SSW,6.9,-,N/A,,Overcast,200,2013-10-03 13:15:00
7:35 AM,37.4,33.8,87,29.83,10.0,SSW,8.1,-,N/A,,Overcast,200,2013-10-03 13:35:00
7:55 AM,37.4,33.8,87,29.84,10.0,Calm,Calm,-,N/A,,Overcast,0,2013-10-03 13:55:00
8:15 AM,39.2,30.2,70,29.85,10.0,North,11.5,21.9,0.01,,Overcast,10,2013-10-03 14:15:00
8:35 AM,39.2,32.0,75,29.85,10.0,North,8.1,-,0.01,,Overcast,10,2013-10-03 14:35:00
8:55 AM,39.2,30.2,70,29.88,10.0,North,18.4,23.0,0.01,,Overcast,350,2013-10-03 14:55:00
9:15 AM,39.2,30.2,70,29.89,10.0,North,10.4,19.6,N/A,,Overcast,10,2013-10-03 15:15:00
9:35 AM,39.2,32.0,75,29.90,10.0,North,13.8,23.0,N/A,,Overcast,360,2013-10-03 15:35:00
9:55 AM,39.2,32.0,75,29.91,10.0,NNE,13.8,-,N/A,,Overcast,30,2013-10-03 15:55:00
10:15 AM,39.2,30.2,70,29.92,10.0,North,12.7,20.7,N/A,,Overcast,360,2013-10-03 16:15:00
10:35 AM,39.2,30.2,70,29.94,10.0,North,15.0,24.2,N/A,,Overcast,360,2013-10-03 16:35:00
10:55 AM,39.2,30.2,70,29.96,10.0,North,18.4,25.3,N/A,,Overcast,360,2013-10-03 16:55:00
11:15 AM,37.4,30.2,75,29.98,9.0,North,19.6,25.3,N/A,,Mostly Cloudy,10,2013-10-03 17:15:00
11:35 AM,37.4,30.2,75,29.99,10.0,North,17.3,20.7,0.01,,Overcast,360,2013-10-03 17:35:00
11:55 AM,37.4,30.2,75,30.00,10.0,North,16.1,23.0,0.01,,Overcast,360,2013-10-03 17:55:00
12:15 PM,39.2,30.2,70,30.01,10.0,North,16.1,26.5,N/A,,Overcast,10,2013-10-03 18:15:00
12:35 PM,39.2,30.2,70,30.02,10.0,North,17.3,24.2,N/A,,Overcast,10,2013-10-03 18:35:00
12:55 PM,37.4,30.2,75,30.03,10.0,North,17.3,-,N/A,,Mostly Cloudy,10,2013-10-03 18:55:00
1:15 PM,39.2,30.2,70,30.05,10.0,North,18.4,26.5,N/A,,Overcast,10,2013-10-03 19:15:00
1:35 PM,39.2,32.0,75,30.06,10.0,North,16.1,24.2,N/A,,Overcast,360,2013-10-03 19:35:00
1:55 PM,39.2,30.2,70,30.07,10.0,North,17.3,25.3,N/A,,Overcast,360,2013-10-03 19:55:00
2:15 PM,39.2,32.0,75,30.08,10.0,North,15.0,21.9,N/A,,Mostly Cloudy,10,2013-10-03 20:15:00
2:35 PM,39.2,30.2,70,30.09,10.0,North,16.1,25.3,N/A,,Overcast,360,2013-10-03 20:35:00
2:55 PM,39.2,30.2,70,30.10,10.0,NNE,12.7,-,N/A,,Overcast,20,2013-10-03 20:55:00
3:15 PM,39.2,30.2,70,30.11,10.0,North,12.7,21.9,N/A,,Overcast,10,2013-10-03 21:15:00
3:35 PM,39.2,30.2,70,30.13,10.0,NNE,16.1,21.9,N/A,,Overcast,20,2013-10-03 21:35:00
3:55 PM,39.2,28.4,65,30.14,10.0,North,13.8,24.2,N/A,,Overcast,360,2013-10-03 21:55:00
4:15 PM,39.2,28.4,65,30.15,10.0,NNE,13.8,18.4,N/A,,Overcast,20,2013-10-03 22:15:00
4:35 PM,39.2,28.4,65,30.15,10.0,North,13.8,19.6,N/A,,Mostly Cloudy,360,2013-10-03 22:35:00
4:55 PM,39.2,28.4,65,30.16,10.0,North,11.5,17.3,N/A,,Overcast,10,2013-10-03 22:55:00
5:15 PM,39.2,28.4,65,30.16,10.0,NNE,11.5,-,N/A,,Overcast,30,2013-10-03 23:15:00
5:35 PM,41.0,28.4,61,30.17,10.0,NNE,13.8,-,N/A,,Overcast,20,2013-10-03 23:35:00
5:55 PM,41.0,28.4,61,30.17,10.0,NNE,12.7,-,N/A,,Overcast,20,2013-10-03 23:55:00
6:15 PM,42.8,26.6,53,30.18,10.0,North,12.7,17.3,N/A,,Overcast,10,2013-10-04 00:15:00
6:35 PM,42.8,26.6,53,30.19,10.0,North,12.7,19.6,N/A,,Overcast,10,2013-10-04 00:35:00
6:55 PM,41.0,26.6,57,30.20,10.0,North,16.1,21.9,N/A,,Overcast,10,2013-10-04 00:55:00
7:15 PM,41.0,26.6,57,30.22,10.0,North,11.5,21.9,N/A,,Overcast,10,2013-10-04 01:15:00
7:35 PM,39.2,26.6,61,30.23,10.0,North,10.4,-,N/A,,Overcast,10,2013-10-04 01:35:00
7:55 PM,39.2,26.6,61,30.23,10.0,NNE,9.2,-,N/A,,Mostly Cloudy,20,2013-10-04 01:55:00
8:15 PM,39.2,26.6,61,30.24,10.0,NNE,11.5,-,N/A,,Mostly Cloudy,20,2013-10-04 02:15:00
8:35 PM,39.2,26.6,61,30.25,10.0,NNE,11.5,-,N/A,,Overcast,30,2013-10-04 02:35:00
8:55 PM,39.2,24.8,56,30.26,10.0,NNE,11.5,-,N/A,,Overcast,20,2013-10-04 02:55:00
9:15 PM,39.2,24.8,56,30.26,10.0,NNE,11.5,-,N/A,,Overcast,20,2013-10-04 03:15:00
9:35 PM,39.2,24.8,56,30.27,10.0,North,11.5,-,N/A,,Overcast,360,2013-10-04 03:35:00
10:35 PM,37.4,24.8,60,30.28,10.0,North,9.2,-,N/A,,Scattered Clouds,10,2013-10-04 04:35:00
10:55 PM,37.4,24.8,60,30.29,10.0,North,9.2,-,N/A,,Partly Cloudy,10,2013-10-04 04:55:00
11:15 PM,37.4,24.8,60,30.29,10.0,North,10.4,-,N/A,,Partly Cloudy,10,2013-10-04 05:15:00
11:35 PM,37.4,23.0,56,30.30,10.0,NNE,8.1,-,N/A,,Partly Cloudy,20,2013-10-04 05:35:00
11:55 PM,39.2,23.0,52,30.30,10.0,NNE,6.9,-,N/A,,Mostly Cloudy,20,2013-10-04 05:55:00